DW1389 Weather Reports


Display with metric or nautical units.
time (UTC)temp
F
wind
direction
speed
MPH
gust
MPH
rain 1hr
in
rain 24hr
in
rain mn
in
humidity
%
barometer
mb
20260906041302 83 160 2.0 3.0 0.00 0.00 0.00 72 1012.4
20260906041032 83 1 2.0 5.0 0.00 0.00 0.00 72 1012.5
20260906040302 83 87 2.0 6.0 0.00 0.00 0.00 72 1012.4
20260906035802 84 79 2.0 6.0 0.00 0.00 0.00 71 1012.4
20260906035305 84 137 2.0 5.0 0.00 0.00 0.00 71 1012.4
20260906034802 84 18 2.0 5.0 0.00 0.00 0.00 70 1012.4
20260906034301 84 267 2.0 5.0 0.00 0.00 0.00 69 1012.4
20260906033803 84 126 2.0 5.0 0.00 0.00 0.00 69 1012.4
20260906033543 84 80 2.0 5.0 0.00 0.00 0.00 68 1012.4
20260906032751 84 48 3.0 7.0 0.00 0.00 0.00 68 1012.4
20260906032536 85 86 3.0 9.0 0.00 0.00 0.00 67 1012.4
20260906031752 85 81 3.0 9.0 0.00 0.00 0.00 67 1012.3
20260906031246 85 38 3.0 9.0 0.00 0.00 0.00 66 1012.2
20260906030746 85 235 4.0 9.0 0.00 0.00 0.00 65 1012.1
20260906030246 86 68 4.0 9.0 0.00 0.00 0.00 64 1012.1
20260906025746 86 5 4.0 10.0 0.00 0.00 0.00 63 1012.1
20260906025245 86 28 4.0 10.0 0.00 0.00 0.00 63 1012.0
20260906024745 87 26 3.0 7.0 0.00 0.00 0.00 62 1011.9
20260906024246 87 51 3.0 7.0 0.00 0.00 0.00 62 1011.7
20260906023746 87 33 3.0 7.0 0.00 0.00 0.00 61 1011.5
20260906023246 87 0 3.0 7.0 0.00 0.00 0.00 61 1011.4
20260906022746 88 114 4.0 8.0 0.00 0.00 0.00 60 1011.3
20260906022246 88 52 4.0 8.0 0.00 0.00 0.00 59 1011.2
20260906022031 88 49 3.0 7.0 0.00 0.00 0.00 58 1011.1
20260906021246 88 92 3.0 6.0 0.00 0.00 0.00 58 1011.0
20260906020741 88 57 3.0 6.0 0.00 0.00 0.00 57 1010.9
20260906020524 89 9 4.0 6.0 0.00 0.00 0.00 56 1010.8
20260906020024 89 81 3.0 6.0 0.00 0.00 0.00 56 1010.7
20260906015234 89 359 3.0 7.0 0.00 0.00 0.00 55 1010.3
20260906014734 89 91 3.0 7.0 0.00 0.00 0.00 55 1010.4
20260906014229 89 233 3.0 7.0 0.00 0.00 0.00 54 1010.5
20260906014014 89 108 3.0 6.0 0.00 0.00 0.00 54 1010.4
20260906013259 90 54 3.0 9.0 0.00 0.00 0.00 54 1010.3
20260906013249 90 92 3.0 6.0 0.00 0.00 0.00 54 1010.4
20260906012259 91 80 3.0 9.0 0.00 0.00 0.00 53 1010.3
20260906012249 90 352 3.0 9.0 0.00 0.00 0.00 53 1010.4
20260906011229 91 347 4.0 9.0 0.00 0.00 0.00 53 1010.2
20260906010728 91 71 4.0 12.0 0.00 0.00 0.00 52 1010.2
20260906010228 92 26 4.0 12.0 0.00 0.00 0.00 52 1010.2
20260906005729 92 316 4.0 9.0 0.00 0.00 0.00 52 1010.3
20260906005228 92 17 4.0 9.0 0.00 0.00 0.00 51 1010.2
20260906004729 92 336 4.0 8.0 0.00 0.00 0.00 50 1010.2
20260906004229 93 358 4.0 11.0 0.00 0.00 0.00 50 1010.1
20260906003729 93 67 4.0 11.0 0.00 0.00 0.00 49 1010.1
20260906003229 94 48 3.0 9.0 0.00 0.00 0.00 49 1010.1
20260906002729 94 335 3.0 9.0 0.00 0.00 0.00 48 1010.0
20260906002228 94 4 3.0 8.0 0.00 0.00 0.00 47 1010.0
20260906001728 95 66 3.0 8.0 0.00 0.00 0.00 46 1010.0
20260906001230 95 11 3.0 8.0 0.00 0.00 0.00 46 1009.9
20260906000730 95 110 3.0 8.0 0.00 0.00 0.00 45 1010.0
20260906000515 95 31 3.0 8.0 0.00 0.00 0.00 45 1009.9
20260906000016 95 83 3.0 7.0 0.00 0.00 0.00 45 1009.8
20260905235514 96 76 3.0 8.0 0.00 0.00 0.00 45 1009.8
20260905234728 96 52 3.0 8.0 0.00 0.00 0.00 44 1009.7
20260905234226 96 346 4.0 9.0 0.00 0.00 0.00 43 1009.7
20260905233726 96 103 4.0 9.0 0.00 0.00 0.00 42 1009.6
20260905233225 96 103 4.0 9.0 0.00 0.00 0.00 42 1009.6
20260905233006 96 93 4.0 10.0 0.00 0.00 0.00 43 1009.6
20260905232224 96 64 4.0 10.0 0.00 0.00 0.00 43 1009.6
20260905231723 97 55 3.0 9.0 0.00 0.00 0.00 43 1009.6
20260905231504 97 343 2.0 7.0 0.00 0.00 0.00 42 1009.5
20260905230721 98 76 2.0 6.0 0.00 0.00 0.00 40 1009.5
20260905230222 98 358 2.0 6.0 0.00 0.00 0.00 38 1009.5
20260905225723 97 59 2.0 8.0 0.00 0.00 0.00 39 1009.6
20260905225222 98 4 2.0 8.0 0.00 0.00 0.00 39 1009.6
20260905224722 98 84 2.0 6.0 0.00 0.06 0.00 39 1009.6
20260905224221 98 93 2.0 6.0 0.00 0.07 0.00 39 1009.6
20260905223722 98 195 2.0 6.0 0.00 0.19 0.00 39 1009.6
20260905223222 98 351 2.0 7.0 0.00 0.21 0.00 39 1009.6
20260905223005 97 80 3.0 7.0 0.00 0.21 0.00 40 1009.7
20260905222222 98 26 2.0 5.0 0.00 0.21 0.00 40 1009.7
20260905221723 98 14 2.0 5.0 0.00 0.21 0.00 40 1009.7
20260905221502 98 39 2.0 8.0 0.00 0.21 0.00 40 1009.7
20260905221006 98 276 2.0 8.0 0.00 0.21 0.00 40 1009.7
20260905220220 99 68 2.0 8.0 0.00 0.21 0.00 40 1009.8
20260905215715 100 142 2.0 6.0 0.00 0.21 0.00 39 1009.8
20260905215539 101 127 1.0 5.0 0.00 0.21 0.00 38 1009.7
20260905215244 101 0 2.0 5.0 0.00 0.21 0.00 39 1009.8
20260905214217 100 287 1.0 5.0 0.00 0.21 0.00 39 1009.7
20260905213717 100 56 2.0 6.0 0.00 0.21 0.00 38 1009.7
20260905213217 99 247 2.0 6.0 0.00 0.21 0.00 40 1009.8
20260905212716 99 229 1.0 3.0 0.00 0.21 0.00 39 1009.9
20260905212217 99 21 2.0 5.0 0.00 0.21 0.00 39 1009.9
20260905211716 99 185 2.0 5.0 0.00 0.21 0.00 39 1010.0
20260905211216 99 108 2.0 5.0 0.00 0.21 0.00 39 1010.1
20260905210716 98 103 2.0 5.0 0.00 0.21 0.00 40 1010.1
20260905210216 98 38 2.0 7.0 0.00 0.21 0.00 40 1010.2
20260905205717 98 128 2.0 7.0 0.00 0.21 0.00 41 1010.3
20260905205454 99 9 2.0 6.0 0.00 0.21 0.00 41 1010.4
20260905204711 100 17 2.0 6.0 0.00 0.21 0.00 40 1010.4
20260905204212 100 19 1.0 7.0 0.00 0.21 0.00 40 1010.5
20260905203954 99 228 1.0 7.0 0.00 0.21 0.00 40 1010.7
20260905203211 98 237 1.0 4.0 0.00 0.21 0.00 42 1010.8
20260905202707 98 97 1.0 7.0 0.00 0.21 0.00 41 1010.9
20260905202207 98 115 2.0 7.0 0.00 0.21 0.00 42 1010.9
20260905201707 98 56 2.0 7.0 0.00 0.21 0.00 43 1011.0
20260905201209 98 0 2.0 7.0 0.00 0.21 0.00 42 1011.0
20260905200708 98 186 2.0 6.0 0.00 0.21 0.00 42 1011.1
20260905200456 98 108 2.0 6.0 0.00 0.21 0.00 42 1011.2
20260905195710 98 195 2.0 6.0 0.00 0.21 0.00 41 1011.3
20260905195208 97 38 2.0 6.0 0.00 0.21 0.00 42 1011.4
20260905194952 97 224 2.0 5.0 0.00 0.21 0.00 44 1011.5
20260905194206 96 317 1.0 5.0 0.00 0.21 0.00 43 1011.6
20260905194025 96 354 2.0 5.0 0.00 0.21 0.00 43 1011.8
20260905193728 96 320 2.0 5.0 0.00 0.21 0.00 42 1011.6
20260905192943 97 76 2.0 6.0 0.00 0.21 0.00 43 1011.9
20260905192203 96 71 2.0 6.0 0.00 0.21 0.00 42 1011.9
20260905191945 96 286 2.0 6.0 0.00 0.21 0.00 45 1012.0
20260905191202 95 152 2.0 5.0 0.00 0.21 0.00 46 1012.1
20260905190701 95 324 2.0 8.0 0.00 0.21 0.00 45 1012.2
20260905190201 96 359 2.0 8.0 0.00 0.21 0.00 45 1012.2
20260905185701 96 149 2.0 8.0 0.00 0.21 0.00 45 1012.3
20260905185201 96 270 2.0 4.0 0.00 0.21 0.00 47 1012.4
20260905184700 96 112 1.0 4.0 0.00 0.21 0.00 47 1012.5
20260905184201 96 221 2.0 5.0 0.00 0.21 0.00 47 1012.6
20260905183946 94 114 2.0 5.0 0.00 0.21 0.00 50 1012.7
20260905183201 93 260 2.0 5.0 0.00 0.21 0.00 50 1012.8
20260905182701 94 190 2.0 5.0 0.00 0.21 0.00 50 1012.8
20260905182201 94 197 2.0 4.0 0.00 0.21 0.00 49 1012.9
20260905181946 95 184 2.0 6.0 0.00 0.21 0.00 49 1013.0
20260905181202 95 179 2.0 6.0 0.00 0.21 0.00 48 1013.1
20260905180702 94 294 2.0 4.0 0.00 0.21 0.00 48 1013.2
20260905180202 93 221 2.0 4.0 0.00 0.21 0.00 50 1013.3
20260905175702 94 65 2.0 8.0 0.00 0.21 0.00 49 1013.4
20260905175201 94 263 2.0 8.0 0.00 0.21 0.00 51 1013.5
20260905174702 94 207 1.0 6.0 0.00 0.21 0.00 48 1013.5
20260905174202 94 350 1.0 6.0 0.00 0.21 0.00 53 1013.7
20260905173700 93 263 2.0 6.0 0.00 0.21 0.00 53 1013.8
20260905173202 93 220 2.0 6.0 0.00 0.21 0.00 55 1013.8
20260905172702 93 252 2.0 5.0 0.00 0.21 0.00 53 1013.8
20260905172202 93 85 2.0 5.0 0.00 0.21 0.00 53 1013.9
20260905171701 93 88 2.0 4.0 0.00 0.21 0.00 52 1013.9
20260905171202 92 103 2.0 7.0 0.00 0.21 0.00 54 1013.9
20260905170701 92 80 2.0 7.0 0.00 0.21 0.00 56 1014.0
20260905170449 92 59 2.0 7.0 0.00 0.21 0.00 56 1014.0
20260905165944 92 211 2.0 6.0 0.00 0.21 0.00 55 1014.1
20260905165202 91 100 2.0 7.0 0.00 0.21 0.00 58 1014.2
20260905164702 90 147 2.0 7.0 0.00 0.21 0.00 61 1014.2
20260905164203 90 255 2.0 8.0 0.00 0.21 0.00 61 1014.3
20260905163702 90 229 2.0 8.0 0.00 0.21 0.00 62 1014.2
20260905163447 91 151 2.0 6.0 0.00 0.21 0.00 61 1014.2
20260905162702 91 223 2.0 6.0 0.00 0.21 0.00 63 1014.2
20260905162202 90 227 2.0 6.0 0.00 0.21 0.00 62 1014.2
20260905161736 89 195 2.0 5.0 0.00 0.21 0.00 64 1014.1
20260905161726 90 259 1.0 5.0 0.00 0.21 0.00 62 1014.2
20260905160702 89 358 2.0 5.0 0.00 0.21 0.00 62 1014.1
20260905160201 89 142 2.0 8.0 0.00 0.21 0.00 64 1014.1
20260905155702 88 227 3.0 8.0 0.00 0.21 0.00 64 1014.1
20260905155202 88 255 2.0 8.0 0.00 0.21 0.00 61 1014.1
20260905154702 88 196 3.0 6.0 0.00 0.21 0.00 66 1014.2
20260905154202 88 271 2.0 6.0 0.00 0.21 0.00 65 1014.2
20260905153702 88 216 2.0 6.0 0.00 0.21 0.00 63 1014.1
20260905153201 88 53 2.0 4.0 0.00 0.21 0.00 66 1014.1
20260905152946 88 332 2.0 5.0 0.00 0.21 0.00 67 1014.2
20260905152200 87 332 2.0 5.0 0.00 0.21 0.00 71 1014.2
20260905151944 87 280 1.0 5.0 0.00 0.21 0.00 70 1014.2
20260905151202 86 131 2.0 6.0 0.00 0.21 0.00 72 1014.2
20260905150701 86 329 2.0 6.0 0.00 0.21 0.00 74 1014.2
20260905150200 85 205 2.0 5.0 0.00 0.21 0.00 75 1014.2
20260905145700 85 152 2.0 5.0 0.00 0.21 0.00 74 1014.2
20260905145447 85 238 2.0 6.0 0.00 0.21 0.00 74 1014.2
20260905144700 85 271 2.0 6.0 0.00 0.21 0.00 76 1014.2
20260905144201 85 270 2.0 6.0 0.00 0.21 0.00 76 1014.2
20260905143701 84 207 2.0 5.0 0.00 0.21 0.00 77 1014.1
20260905143444 84 209 2.0 6.0 0.00 0.21 0.00 78 1014.2
20260905142949 83 286 2.0 6.0 0.00 0.21 0.00 81 1014.2
20260905142200 83 233 2.0 5.0 0.00 0.21 0.00 81 1014.2
20260905141700 83 2 2.0 5.0 0.00 0.21 0.00 83 1014.2
20260905141201 84 211 1.0 5.0 0.00 0.21 0.00 80 1014.1
20260905140701 84 0 1.0 5.0 0.00 0.21 0.00 82 1014.1
20260905140201 83 0 1.0 5.0 0.00 0.21 0.00 84 1014.0
20260905135701 83 238 1.0 5.0 0.00 0.21 0.00 84 1014.0
20260905135201 83 0 1.0 4.0 0.00 0.21 0.00 84 1014.0
20260905134950 82 208 1.0 4.0 0.00 0.21 0.00 85 1013.9
20260905134431 82 140 1.0 2.0 0.00 0.21 0.00 86 1013.9
20260905133702 81 153 1.0 2.0 0.00 0.21 0.00 86 1013.9
20260905133202 80 305 1.0 2.0 0.00 0.21 0.00 87 1013.9
20260905132704 80 0 1.0 2.0 0.00 0.21 0.00 88 1013.9
20260905132202 80 298 0.0 2.0 0.00 0.21 0.00 89 1013.8
20260905131928 79 101 0.0 2.0 0.00 0.21 0.00 88 1013.7
20260905131201 79 250 0.0 1.0 0.00 0.21 0.00 89 1013.7
20260905130702 78 0 0.0 2.0 0.00 0.21 0.00 89 1013.6
20260905130424 78 0 0.0 2.0 0.00 0.21 0.00 91 1013.6
20260905125702 77 61 0.0 1.0 0.00 0.21 0.00 92 1013.5
20260905125202 77 0 0.0 2.0 0.00 0.21 0.00 93 1013.4
20260905125152 76 128 0.0 2.0 0.00 0.21 0.00 94 1013.4
20260905124201 76 0 0.0 2.0 0.00 0.21 0.00 95 1013.3
20260905123702 76 131 0.0 2.0 0.00 0.21 0.00 95 1013.3
20260905123202 76 0 0.0 1.0 0.00 0.21 0.00 94 1013.2
20260905122702 75 305 0.0 1.0 0.00 0.21 0.00 94 1013.2
20260905122430 76 0 0.0 0.0 0.00 0.22 0.00 94 1013.1
20260905121701 76 0 0.0 1.0 0.00 0.22 0.00 94 1013.1
20260905121424 76 0 0.0 2.0 0.00 0.22 0.00 94 1013.1
20260905120702 76 0 1.0 2.0 0.00 0.23 0.00 94 1013.1
20260905120202 76 0 0.0 2.0 0.00 0.23 0.00 94 1013.0
20260905115932 76 195 0.0 2.0 0.00 0.23 0.00 94 1013.0
20260905115430 76 0 0.0 2.0 0.00 0.23 0.00 94 1012.9
20260905114702 76 213 0.0 2.0 0.00 0.23 0.00 93 1012.9
20260905114201 76 173 0.0 2.0 0.00 0.24 0.00 93 1012.9
20260905113932 76 132 0.0 2.0 0.00 0.24 0.00 93 1012.8
20260905113202 76 0 0.0 2.0 0.00 0.24 0.00 93 1012.8
20260905112702 76 263 0.0 1.0 0.00 0.24 0.00 93 1012.8
20260905112202 76 303 0.0 2.0 0.00 0.24 0.00 93 1012.8
20260905111702 77 0 0.0 2.0 0.00 0.24 0.00 92 1012.8
20260905111202 77 0 0.0 2.0 0.00 0.24 0.00 92 1012.8
20260905111156 77 275 0.0 2.0 0.00 0.24 0.00 92 1012.7
20260905110202 77 156 0.0 2.0 0.00 0.24 0.00 92 1012.7
20260905105928 77 0 1.0 2.0 0.00 0.24 0.00 92 1012.7
20260905105201 77 196 1.0 2.0 0.00 0.24 0.00 92 1012.7
20260905104701 77 193 0.0 2.0 0.00 0.24 0.00 92 1012.7
20260905104202 77 0 0.0 2.0 0.00 0.24 0.00 92 1012.7
20260905103702 77 0 0.0 1.0 0.00 0.24 0.00 92 1012.7
20260905103204 77 205 1.0 2.0 0.00 0.24 0.00 92 1012.7
20260905102702 77 235 1.0 2.0 0.00 0.24 0.00 92 1012.7
20260905102202 77 177 0.0 2.0 0.00 0.24 0.00 92 1012.7
20260905101701 77 0 1.0 2.0 0.00 0.24 0.00 92 1012.7
20260905101202 77 0 0.0 2.0 0.00 0.24 0.00 92 1012.6
20260905100930 77 0 0.0 1.0 0.00 0.24 0.00 91 1012.5
20260905100202 77 0 0.0 1.0 0.00 0.24 0.00 91 1012.5
20260905095702 77 214 0.0 2.0 0.00 0.24 0.00 91 1012.4
20260905095202 77 198 0.0 2.0 0.00 0.24 0.00 91 1012.5
20260905094702 77 0 0.0 1.0 0.00 0.24 0.00 91 1012.5
20260905094202 78 166 0.0 2.0 0.00 0.24 0.00 90 1012.5
20260905093703 78 0 1.0 3.0 0.00 0.24 0.00 90 1012.5
20260905093202 78 165 1.0 3.0 0.00 0.24 0.00 90 1012.5
20260905092702 78 185 2.0 3.0 0.00 0.24 0.00 90 1012.5
20260905092424 78 161 1.0 2.0 0.00 0.24 0.00 90 1012.6
20260905092405 78 210 1.0 3.0 0.00 0.24 0.00 90 1012.5
20260905091151 78 215 1.0 2.0 0.00 0.24 0.00 90 1012.6
20260905090650 78 234 1.0 2.0 0.00 0.24 0.00 90 1012.6
20260905090150 78 210 1.0 2.0 0.00 0.24 0.00 90 1012.6
20260905085651 78 189 1.0 3.0 0.00 0.24 0.00 89 1012.6
20260905085414 78 188 1.0 3.0 0.00 0.24 0.00 90 1012.6
20260905084858 78 206 1.0 2.0 0.00 0.24 0.00 89 1012.7
20260905084136 78 271 1.0 3.0 0.00 0.24 0.00 89 1012.7
20260905083906 78 164 1.0 3.0 0.00 0.24 0.00 89 1012.8
20260905083136 78 199 2.0 3.0 0.00 0.24 0.00 89 1012.7
20260905082636 78 188 2.0 3.0 0.00 0.24 0.00 89 1012.7
20260905082135 78 209 1.0 3.0 0.00 0.24 0.00 89 1012.6
20260905081635 78 226 1.0 2.0 0.00 0.24 0.00 88 1012.7
20260905081137 78 283 1.0 2.0 0.00 0.24 0.00 88 1012.7
20260905080634 78 188 1.0 2.0 0.00 0.24 0.00 87 1012.7
20260905080135 78 212 1.0 2.0 0.00 0.24 0.00 87 1012.8
20260905075634 78 263 1.0 2.0 0.00 0.24 0.00 87 1012.8
20260905075138 78 288 1.0 2.0 0.00 0.24 0.00 87 1012.8
20260905075133 78 0 1.0 2.0 0.00 0.24 0.00 87 1012.8
20260905074135 78 227 1.0 2.0 0.00 0.24 0.00 86 1012.8
20260905073630 78 174 1.0 2.0 0.00 0.24 0.00 86 1012.9
20260905073130 78 268 1.0 4.0 0.00 0.24 0.00 86 1013.0
20260905072630 78 259 1.0 4.0 0.00 0.24 0.00 86 1013.0
20260905072130 78 308 1.0 3.0 0.00 0.24 0.00 86 1013.0
20260905071902 78 274 1.0 3.0 0.00 0.24 0.00 85 1013.0
20260905071401 78 120 1.0 4.0 0.00 0.24 0.00 85 1013.0
20260905070632 78 281 1.0 4.0 0.00 0.24 0.00 85 1013.0
20260905070130 78 133 1.0 4.0 0.00 0.24 0.00 85 1013.1
20260905065630 79 42 1.0 2.0 0.00 0.24 0.00 84 1013.2
20260905065358 79 88 1.0 2.0 0.00 0.24 0.00 84 1013.1
20260905064630 79 192 1.0 3.0 0.00 0.24 0.00 84 1013.1
20260905064350 79 179 2.0 3.0 0.00 0.24 0.00 84 1013.1
20260905063850 79 268 2.0 3.0 0.00 0.24 0.00 84 1013.1
20260905063123 79 277 1.0 3.0 0.00 0.24 0.00 83 1013.2
20260905062622 79 255 1.0 3.0 0.00 0.24 0.00 83 1013.2
20260905062107 79 250 1.0 3.0 0.00 0.24 0.00 83 1013.2
20260905061608 79 295 1.0 3.0 0.00 0.24 0.00 83 1013.2
20260905061108 79 245 1.0 3.0 0.00 0.24 0.00 83 1013.2
20260905060608 79 230 1.0 3.0 0.00 0.24 0.00 83 1013.3
20260905060107 79 84 1.0 2.0 0.00 0.24 0.00 83 1013.4
20260905055608 79 43 1.0 2.0 0.00 0.24 0.00 83 1013.3
20260905055351 79 138 1.0 3.0 0.00 0.24 0.00 82 1013.3
20260905055115 79 165 1.0 3.0 0.00 0.24 0.00 82 1013.3
20260905054108 79 133 1.0 3.0 0.00 0.24 0.00 82 1013.3
20260905053602 79 88 1.0 3.0 0.00 0.24 0.00 81 1013.3
20260905053053 79 101 1.0 3.0 0.00 0.24 0.00 81 1013.3
20260905052553 80 112 1.0 4.0 0.00 0.24 0.00 81 1013.3
20260905052037 80 285 1.0 4.0 0.00 0.24 0.00 81 1013.3
20260905051537 80 286 1.0 3.0 0.00 0.24 0.00 81 1013.3
20260905051038 80 261 1.0 3.0 0.00 0.24 0.00 81 1013.4
20260905050531 80 118 1.0 3.0 0.00 0.24 0.00 81 1013.4
20260905050030 80 130 1.0 3.0 0.00 0.24 0.00 81 1013.4
20260905045530 80 78 1.0 4.0 0.00 0.24 0.24 82 1013.4
20260905045300 80 289 1.0 4.0 0.00 0.24 0.24 82 1013.3
20260905044530 80 270 1.0 4.0 0.00 0.24 0.24 82 1013.3
20260905044030 80 146 1.0 3.0 0.00 0.24 0.24 82 1013.3
20260905043529 80 0 1.0 3.0 0.00 0.24 0.24 82 1013.3
20260905043031 80 138 1.0 3.0 0.00 0.24 0.24 82 1013.2
20260905042530 80 142 1.0 3.0 0.00 0.24 0.24 82 1013.3
20260905042030 80 223 1.0 3.0 0.00 0.24 0.24 82 1013.3
20260905041803 80 127 0.0 2.0 0.00 0.24 0.24 82 1013.3